This is the latest recevied weather packets stored in our database for station/object W8CWV-13. If no packets are shown the sender has not sent any weather packets the latest 10 day(s).
| Time | Temp. | Humidity | Pressure | Rain* | Wind** | Luminosity | Snow |
|---|---|---|---|---|---|---|---|
| 1778102703 | 18.89° C | 100% | 1016.2 hPa | - | - | - | - |
| 1778102128 | 18.89° C | 100% | 1014.7 hPa | - | - | - | - |
| 1778101559 | 18.89° C | 100% | 1013.3 hPa | - | - | - | - |
| 1778100990 | 19.44° C | 100% | 1012.4 hPa | - | - | - | - |
| 1778100408 | 19.44° C | 100% | 1011.9 hPa | - | - | - | - |
| 1778099838 | 19.44° C | 100% | 1011.7 hPa | - | - | - | - |
| 1778099268 | 20° C | 100% | 1011.6 hPa | - | - | - | - |
| 1778098694 | 20° C | 100% | 1011.6 hPa | - | - | - | - |
| 1778098116 | 20° C | 100% | 1011.5 hPa | - | - | - | - |
| 1778097547 | 20° C | 100% | 1011.7 hPa | - | - | - | - |
| 1778096969 | 20.56° C | 100% | 1011.8 hPa | - | - | - | - |
| 1778096397 | 20.56° C | 100% | 1012.1 hPa | - | - | - | - |
| 1778095824 | 21.11° C | 100% | 1012.1 hPa | - | - | - | - |
| 1778095248 | 21.11° C | 100% | 1012.2 hPa | - | - | - | - |
| 1778094673 | 21.11° C | 100% | 1012.4 hPa | - | - | - | - |
| 1778094102 | 21.67° C | 100% | 1012.7 hPa | - | - | - | - |
| 1778093530 | 21.67° C | 100% | 1011.9 hPa | - | - | - | - |
| 1778092383 | 20.56° C | 100% | 1012.2 hPa | - | - | - | - |
| 1778091805 | 19.44° C | 100% | 1012.5 hPa | - | - | - | - |
| 1778091230 | 20° C | 100% | 1012.3 hPa | - | - | - | - |
| 1778090660 | 20° C | 100% | 1012.7 hPa | - | - | - | - |
| 1778090088 | 20° C | 100% | 1013.1 hPa | - | - | - | - |
| 1778089513 | 20° C | 100% | 1013.4 hPa | - | - | - | - |
| 1778088941 | 20° C | 100% | 1014.6 hPa | - | - | - | - |
| 1778088369 | 20.56° C | 100% | 1015 hPa | - | - | - | - |
* Rain since midnight (hover to see other rain measurements)
** Current wind speed in m/s (hover to see current wind gust speed)